Location: Home
(42.5358°N, 72.7383°W)
Time: 15:02:27
(UTC-05:00)

Vanguard 3 - Pass Details

Date: 04 December 2021
Orbit: 508 x 3260 km, 33.3° (Epoch: 20 January)

Event Time Altitude Azimuth Distance (km) Brightness Sun altitude
Rises 07:48:47 0° 274° (W) 7,107 11.4 5.9°
Reaches altitude 10° 07:54:09 10° 270° (W) 5,879 11.1 6.7°
Maximum altitude 08:09:51 46° 205° (SSW) 2,772 10.2 8.9°
Drops below altitude 10° 08:19:33 10° 136° (SE) 3,718 14.4 10.2°
Sets 08:22:10 0° 130° (SE) 4,388 13.2 10.6°
